Lid_Strength_Index
2 2 2 2 2 2 2 2 2 2 3 2 2 2 3 3 3 5 8 5 4 1 1 5 6 7 4 5 9 9 12 13 12 11 10 7 8 6 7 7 7 5 5 4 2
2 2 2 2 3 2 2 2 2 2 2 2 3 2 2 3 5 6 2 2 2 2 5 6 8 7 6 6 10 12 13 12 8 9 9 7 8 7 8 8 7 7 4 3 3
2 2 2 2 3 2 2 2 2 2 2 2 2 3 3 3 7 5 1 2 1 1 3 5 7 7 7 7 8 12 13 9 9 9 9 8 8 6 8 9 7 8 6 4 4
2 2 2 2 3 2 2 2 3 3 3 3 3 2 3 6 13 3 -0 1 1 3 4 6 9 10 9 10 7 11 10 10 9 8 10 10 8 8 8 8 5 5 4 4 5
1 1 2 2 2 2 2 2 2 2 3 2 3 3 5 9 10 5 2 2 3 5 5 7 10 11 10 9 8 10 10 10 8 7 9 9 10 9 8 6 5 4 4 5 4
1 1 1 2 2 2 2 2 2 2 2 3 3 3 8 13 6 6 6 5 5 5 7 7 9 9 11 11 9 8 9 9 8 8 9 10 11 9 8 6 5 5 5 5 4
1 1 1 1 1 1 1 1 2 2 2 2 3 5 9 11 6 6 7 7 6 5 6 5 7 10 11 13 7 8 11 10 9 8 10 10 12 11 8 6 6 6 5 5 4
1 1 0 0 0 1 1 1 1 2 2 2 3 6 12 6 7 7 7 8 7 6 5 4 4 8 11 12 9 11 12 15 10 8 8 10 14 11 9 8 7 6 6 5 5
0 0 -0 -1 -1 -1 -1 -1 0 0 -0 1 5 7 12 5 8 6 7 9 8 6 5 4 4 8 11 15 13 12 16 15 12 8 8 9 14 10 9 10 9 8 7 6 5
0 -1 -2 -2 -2 -2 -2 -2 -2 -1 -1 0 3 11 9 10 7 6 6 6 9 9 8 7 7 10 13 16 18 17 15 14 14 11 10 11 11 10 9 10 11 9 7 7 5
-2 -2 -2 -2 -2 -2 -0 3 5 6 4 7 6 7 7 6 6 6 7 9 8 10 13 9 11 14 13 13 13 13 14 14 12 9 10 11 11 9 9 9 11 11 11 10 6
-2 -2 -2 -2 -2 -2 1 4 4 4 8 4 4 4 3 4 9 8 6 11 11 13 11 13 14 11 10 11 12 13 15 16 13 11 11 12 12 10 9 9 9 10 11 11 10
-2 -2 -2 -1 -1 1 3 4 1 1 8 7 4 5 4 4 8 8 7 10 12 13 13 15 13 10 10 11 13 13 15 15 15 14 13 13 14 12 10 10 8 8 9 10 10
-2 -2 -1 -1 2 4 4 1 1 2 18 12 7 5 4 4 8 4 5 8 11 14 12 13 11 12 11 12 11 15 11 12 13 14 17 14 19 15 12 10 9 8 8 10 10
-2 -1 -1 -1 4 4 2 0 0 4 26 9 7 2 4 7 6 6 4 7 12 12 11 14 13 13 14 12 10 13 11 11 11 13 17 17 18 17 13 14 12 9 8 10 11
-1 -1 -1 2 2 2 1 -0 3 17 25 15 8 8 8 7 7 5 6 6 7 10 10 12 10 11 12 11 10 10 12 12 11 13 19 17 17 18 14 13 11 10 8 12 12
-2 -1 -0 0 3 1 1 4 17 23 13 16 15 9 9 10 9 8 9 10 12 16 19 13 12 11 10 12 9 11 14 19 20 20 21 16 17 16 13 14 12 13 11 11 11
-2 -1 0 1 1 1 3 13 22 18 20 9 9 10 13 10 10 10 11 13 10 11 14 18 19 11 10 11 13 13 13 18 23 21 21 14 18 17 11 11 13 13 12 11 11
-1 2 2 2 1 2 10 19 18 18 10 11 10 16 19 12 10 11 12 13 10 10 15 16 16 10 9 9 10 13 14 13 16 18 18 17 16 13 12 13 12 11 11 11 11
4 3 3 1 1 4 12 15 17 9 8 9 14 13 20 18 15 14 12 11 11 9 9 12 16 11 10 8 9 11 9 15 15 23 24 19 19 17 15 13 11 11 10 10 9
4 8 3 1 3 7 18 20 15 8 7 10 12 14 14 14 15 17 13 10 9 10 9 10 13 14 11 13 14 13 14 12 13 17 19 20 19 14 14 11 11 10 10 10 10
10 16 4 3 13 12 19 16 8 9 8 9 9 10 11 12 17 14 13 11 7 8 12 10 14 16 14 11 10 11 12 12 15 17 17 16 18 12 11 10 10 10 9 10 9
10 10 5 6 17 21 17 12 10 10 9 11 11 9 9 11 14 12 11 8 7 9 11 10 14 22 17 13 12 13 12 11 11 14 17 20 18 11 10 10 10 10 10 10 10
12 18 14 12 14 18 21 18 15 8 10 8 10 9 10 11 9 12 12 8 7 8 7 8 12 16 18 17 14 16 13 12 11 17 15 16 15 13 12 11 10 10 10 10 10
11 18 15 19 15 20 16 13 13 13 11 9 10 10 13 17 12 13 11 10 8 8 8 10 16 14 13 13 13 14 14 13 14 13 15 14 13 12 11 11 10 10 10 10 10
15 18 15 23 14 19 18 17 13 12 11 14 13 10 11 15 12 13 11 11 11 9 10 10 14 14 18 14 14 15 14 13 13 13 13 13 13 11 11 11 11 10 10 11 11
11 11 13 16 21 19 19 17 13 12 11 9 10 11 11 9 9 9 9 9 10 11 12 12 13 16 20 15 16 20 16 14 13 12 11 14 11 11 12 10 11 11 11 11 11